Regional Weather Roundup
Issued by NWS

Home | Current Version | Previous Version | Graphics & Text | Print | Product List | Glossary On
Versions: 1 2 3 4 5 6 7 8 9 10 11 12 13 14 15 16 17 18 19 20 21 22 23 24 25 26 27 28 29 30 31 32 33 34 35 36 37 38 39 40 41 42 43 44 45 46 47 48 49 50
000
ASUS45 KABQ 062010
RWRNM
NEW MEXICO REGIONAL WEATHER ROUNDUP
NATIONAL WEATHER SERVICE ALBUQUERQUE NM
200 PM MDT MON JUL 06 2015

NOTE: "FAIR" MEANS FEW OR NO CLOUDS BELOW 12,000 FEET AGL WITH NO
       SIGNIFICANT WEATHER OR OBSTRUCTIONS TO VISION.

      THIS PRODUCT IS RELEASED AS TWO VERSIONS.  ONE VERSION NEAR
      THE TOP OF THE HOUR CONTAINING PRELIMINARY DATA FROM ALBUQUERQUE
      AND OTHER STATIONS.  A FINAL VERSION WITH ADDITIONAL DATA IS
      ISSUED ABOUT 10 MINUTES AFTER THE HOUR.

NMZ501-503-504-510>518-062100-
NORTHWEST PLATEAU/NORTHCENTRAL MOUNTAINS

CITY           SKY/WX    TMP DP  RH WIND       PRES   REMARKS
FARMINGTON     MOSUNNY   89  50  26 W10G17    30.10F
LOS ALAMOS     LGT RAIN  63  57  79 W13       30.28R
SANTA FE       CLOUDY    73  54  51 NE16G24   30.20R THUNDER
TAOS           CLOUDY    59  46  63 SE7       30.30R THUNDER
ANGEL FIRE     CLOUDY    59  53  80 SE6       30.38F

$$
NMZ402-403-502-505>509-062100-
WESTCENTRAL MOUNTAINS/SOUTHWEST MOUNTAINS

CITY           SKY/WX    TMP DP  RH WIND       PRES   REMARKS
GALLUP         MOSUNNY   82  47  29 SW13      30.21F
GRANTS         PTSUNNY   78  49  35 N9G17     30.23F
SILVER CITY      N/A     86  50  28 W16G22    30.16F

$$
NMZ407-409-411-412-062100-
SOUTHERN DESERTS

CITY           SKY/WX    TMP DP  RH WIND       PRES   REMARKS
LORDSBURG      FAIR      90  55  31 NW18G28   30.10F
DEMING         MOSUNNY   90  52  27 NW7       30.06F
LAS CRUCES     MOSUNNY   90  52  27 W5G18     30.08F
HOLLOMAN AFB     N/A     92  55  28 W14G21    30.02F
ALAMOGORDO     MOSUNNY   91  54  27 NW10      30.04F
T OR C         MOSUNNY   90  53  28 N8        30.09F

$$
NMZ519>523-062100-
CENTRAL VALLEYS/CENTRAL HIGHLANDS

CITY           SKY/WX    TMP DP  RH WIND       PRES   REMARKS
ALBUQUERQUE    MOSUNNY   85  51  31 SE5       30.12F
DOUBLE EAGLE   MOSUNNY   84  54  34 W9        30.16F
MORIARTY ARPT    N/A     82  51  34 E13       30.19F
CLINES CORNERS LGT RAIN  63  59  87 E10       30.26F
BELEN          FAIR      87  49  27 NE6       30.11F
SOCORRO        FAIR      90  50  25 NE8G17    30.08F

$$
NMZ524>526-539-540-062100-
SOUTHCENTRAL MOUNTAINS

CITY           SKY/WX    TMP DP  RH WIND       PRES   REMARKS
RUIDOSO        MOSUNNY   77  54  44 SE7       30.24F

$$
NMZ527>531-062100-
NORTHEAST HIGHLANDS/NORTHEAST PLAINS

CITY           SKY/WX    TMP DP  RH WIND       PRES   REMARKS
LAS VEGAS      CLOUDY    64  55  72 N22G28    30.28S
RATON          CLOUDY    64  59  83 E9        30.26S
CLAYTON        CLOUDY    73  62  68 N18G30    30.17S

$$
NMZ532>537-062100-
EASTCENTRAL PLAINS

CITY           SKY/WX    TMP DP  RH WIND       PRES   REMARKS
TUCUMCARI      PTSUNNY   89  59  36 NE18G25   30.02F
CANNON AFB     PTSUNNY   85  64  49 E15       30.01R
CLOVIS AIRPORT CLOUDY    72  63  73 S10G25      N/A  THUNDER

$$
NMZ028-029-538-062100-
SOUTHEAST PLAINS

CITY           SKY/WX    TMP DP  RH WIND       PRES   REMARKS
ROSWELL        CLOUDY    94  56  27 VRB6      29.95F
ARTESIA        MOSUNNY   93  59  31 SE5       29.96F
CARLSBAD       PTSUNNY   98  57  25 SW6       29.92F HX  97
HOBBS          PTSUNNY   95  54  24 S13G18    29.97F


$$



USA.gov is the U.S. government's official web portal to all federal, state and local government web resources and services.